Time,TemperatureF,DewpointF,PressureIn,WindDirection,WindDirectionDegrees,WindSpeedMPH,WindSpeedGustMPH,Humidity,HourlyPrecipIn,Conditions,Clouds,dailyrainin,SoftwareType,DateUTC
2013-07-18 00:01:00,79.5,72.8,29.94,WSW,240,8.0,10.0,80,0.00,,,0.00,WeatherCatV1.10B1784,2013-07-18 04:01:00,
2013-07-18 00:06:00,79.2,72.5,29.94,WSW,247,5.0,7.0,80,0.00,,,0.00,WeatherCatV1.10B1784,2013-07-18 04:06:00,
2013-07-18 00:11:00,79.1,72.4,29.94,WSW,257,4.0,5.0,80,0.00,,,0.00,WeatherCatV1.10B1784,2013-07-18 04:11:00,
2013-07-18 00:16:00,79.1,72.4,29.95,WSW,243,4.0,6.0,80,0.00,,,0.00,WeatherCatV1.10B1784,2013-07-18 04:16:00,
2013-07-18 00:21:00,79.1,72.4,29.95,SW,231,2.0,2.0,80,0.00,,,0.00,WeatherCatV1.10B1784,2013-07-18 04:21:00,
2013-07-18 00:26:00,79.0,72.3,29.95,SW,222,1.0,8.0,80,0.00,,,0.00,WeatherCatV1.10B1784,2013-07-18 04:26:00,
2013-07-18 00:31:00,78.9,72.2,29.96,SW,230,8.0,10.0,80,0.00,,,0.00,WeatherCatV1.10B1784,2013-07-18 04:31:00,
2013-07-18 00:36:00,79.0,72.3,29.95,WSW,247,5.0,10.0,80,0.00,,,0.00,WeatherCatV1.10B1784,2013-07-18 04:36:00,
2013-07-18 00:41:00,79.1,72.4,29.95,West,262,0.0,7.0,80,0.00,,,0.00,WeatherCatV1.10B1784,2013-07-18 04:41:00,
2013-07-18 00:46:00,79.0,72.3,29.95,WSW,237,2.0,5.0,80,0.00,,,0.00,WeatherCatV1.10B1784,2013-07-18 04:46:00,
2013-07-18 00:51:00,79.0,72.7,29.95,WSW,247,0.0,12.0,81,0.00,,,0.00,WeatherCatV1.10B1784,2013-07-18 04:51:00,
2013-07-18 00:56:00,79.0,72.3,29.95,WSW,248,0.0,8.0,80,0.00,,,0.00,WeatherCatV1.10B1784,2013-07-18 04:56:00,
2013-07-18 01:01:00,79.0,72.7,29.95,SW,233,1.0,5.0,81,0.00,,,0.00,WeatherCatV1.10B1784,2013-07-18 05:01:00,
2013-07-18 01:06:00,79.1,72.8,29.95,SW,234,9.0,10.0,81,0.00,,,0.00,WeatherCatV1.10B1784,2013-07-18 05:06:00,
2013-07-18 01:11:00,79.1,72.4,29.95,SW,219,3.0,7.0,80,0.00,,,0.00,WeatherCatV1.10B1784,2013-07-18 05:11:00,
2013-07-18 01:16:00,79.1,72.8,29.95,WSW,246,0.0,9.0,81,0.00,,,0.00,WeatherCatV1.10B1784,2013-07-18 05:16:00,
2013-07-18 01:21:00,79.1,72.8,29.95,WNW,284,0.0,6.0,81,0.00,,,0.00,WeatherCatV1.10B1784,2013-07-18 05:21:00,
2013-07-18 01:26:00,79.1,72.4,29.95,WSW,246,6.0,8.0,80,0.00,,,0.00,WeatherCatV1.10B1784,2013-07-18 05:26:00,
2013-07-18 01:31:00,79.0,72.7,29.95,WSW,244,3.0,5.0,81,0.00,,,0.00,WeatherCatV1.10B1784,2013-07-18 05:31:00,
2013-07-18 01:36:00,78.9,72.6,29.95,WSW,244,4.0,12.0,81,0.00,,,0.00,WeatherCatV1.10B1784,2013-07-18 05:36:00,
2013-07-18 01:41:00,78.7,72.7,29.95,West,267,6.0,7.0,82,0.00,,,0.00,WeatherCatV1.10B1784,2013-07-18 05:41:00,
2013-07-18 01:46:00,78.7,72.7,29.95,WSW,246,2.0,5.0,82,0.00,,,0.00,WeatherCatV1.10B1784,2013-07-18 05:46:00,
2013-07-18 01:51:00,78.5,72.5,29.95,WSW,239,0.0,8.0,82,0.00,,,0.00,WeatherCatV1.10B1784,2013-07-18 05:51:00,
2013-07-18 01:56:00,78.5,72.5,29.94,WSW,250,3.0,6.0,82,0.00,,,0.00,WeatherCatV1.10B1784,2013-07-18 05:56:00,
2013-07-18 02:01:00,78.3,72.7,29.94,SW,235,6.0,8.0,83,0.00,,,0.00,WeatherCatV1.10B1784,2013-07-18 06:01:00,
2013-07-18 02:06:00,78.2,72.6,29.94,WSW,257,5.0,11.0,83,0.00,,,0.00,WeatherCatV1.10B1784,2013-07-18 06:06:00,
2013-07-18 02:10:00,78.0,72.4,29.94,WSW,238,5.0,9.0,83,0.00,,,0.00,WeatherCatV1.10B1784,2013-07-18 06:10:00,
2013-07-18 02:15:00,77.8,72.6,29.94,West,262,5.0,9.0,84,0.00,,,0.00,WeatherCatV1.10B1784,2013-07-18 06:15:00,
2013-07-18 02:20:00,77.7,72.5,29.94,WSW,248,3.0,5.0,84,0.00,,,0.00,WeatherCatV1.10B1784,2013-07-18 06:20:00,
2013-07-18 02:25:00,77.5,72.3,29.93,WSW,242,11.0,11.0,84,0.00,,,0.00,WeatherCatV1.10B1784,2013-07-18 06:25:00,
2013-07-18 02:30:00,77.5,72.6,29.93,WSW,242,11.0,11.0,85,0.00,,,0.00,WeatherCatV1.10B1784,2013-07-18 06:30:00,
2013-07-18 02:35:00,77.5,72.3,29.93,WSW,237,2.0,9.0,84,0.00,,,0.00,WeatherCatV1.10B1784,2013-07-18 06:35:00,
2013-07-18 02:40:00,77.6,72.4,29.93,WSW,257,3.0,11.0,84,0.00,,,0.00,WeatherCatV1.10B1784,2013-07-18 06:40:00,
2013-07-18 02:45:00,77.5,72.3,29.93,WSW,257,7.0,7.0,84,0.00,,,0.00,WeatherCatV1.10B1784,2013-07-18 06:45:00,
2013-07-18 02:50:00,77.5,72.3,29.92,WSW,238,7.0,7.0,84,0.00,,,0.00,WeatherCatV1.10B1784,2013-07-18 06:50:00,
2013-07-18 02:55:00,77.4,72.2,29.93,WNW,283,1.0,7.0,84,0.00,,,0.00,WeatherCatV1.10B1784,2013-07-18 06:55:00,
2013-07-18 03:00:00,77.5,72.3,29.92,WSW,240,0.0,8.0,84,0.00,,,0.00,WeatherCatV1.10B1784,2013-07-18 07:00:00,
2013-07-18 03:05:00,77.6,72.4,29.92,WSW,241,6.0,8.0,84,0.00,,,0.00,WeatherCatV1.10B1784,2013-07-18 07:05:00,
2013-07-18 03:10:00,77.6,72.4,29.92,SW,233,9.0,10.0,84,0.00,,,0.00,WeatherCatV1.10B1784,2013-07-18 07:10:00,
2013-07-18 03:15:00,77.6,72.4,29.92,WSW,257,3.0,8.0,84,0.00,,,0.00,WeatherCatV1.10B1784,2013-07-18 07:15:00,
2013-07-18 03:20:00,77.6,72.4,29.92,West,262,1.0,9.0,84,0.00,,,0.00,WeatherCatV1.10B1784,2013-07-18 07:20:00,
2013-07-18 03:25:00,77.6,72.4,29.92,WSW,248,2.0,7.0,84,0.00,,,0.00,WeatherCatV1.10B1784,2013-07-18 07:25:00,
2013-07-18 03:30:00,77.9,72.3,29.91,WSW,243,1.0,9.0,83,0.00,,,0.00,WeatherCatV1.10B1784,2013-07-18 07:30:00,
2013-07-18 03:35:00,78.1,72.5,29.91,WSW,252,3.0,8.0,83,0.00,,,0.00,WeatherCatV1.10B1784,2013-07-18 07:35:00,
2013-07-18 03:40:00,78.2,72.2,29.91,WSW,246,1.0,7.0,82,0.00,,,0.00,WeatherCatV1.10B1784,2013-07-18 07:40:00,
2013-07-18 03:45:00,78.4,72.4,29.91,WSW,241,8.0,8.0,82,0.00,,,0.00,WeatherCatV1.10B1784,2013-07-18 07:45:00,
2013-07-18 03:50:00,78.5,72.5,29.91,SW,234,2.0,5.0,82,0.00,,,0.00,WeatherCatV1.10B1784,2013-07-18 07:50:00,
2013-07-18 03:55:00,78.4,72.4,29.91,SW,236,0.0,3.0,82,0.00,,,0.00,WeatherCatV1.10B1784,2013-07-18 07:55:00,
2013-07-18 04:00:00,78.4,72.4,29.91,WSW,238,0.0,3.0,82,0.00,,,0.00,WeatherCatV1.10B1784,2013-07-18 08:00:00,
2013-07-18 04:05:00,78.2,72.2,29.91,WSW,238,0.0,1.0,82,0.00,,,0.00,WeatherCatV1.10B1784,2013-07-18 08:05:00,
2013-07-18 04:10:00,78.1,72.5,29.92,WSW,238,0.0,1.0,83,0.00,,,0.00,WeatherCatV1.10B1784,2013-07-18 08:10:00,
2013-07-18 04:15:00,78.2,72.6,29.91,SW,217,0.0,4.0,83,0.00,,,0.00,WeatherCatV1.10B1784,2013-07-18 08:15:00,
2013-07-18 04:20:00,78.2,72.2,29.92,SW,220,0.0,0.0,82,0.00,,,0.00,WeatherCatV1.10B1784,2013-07-18 08:20:00,
2013-07-18 04:25:00,78.4,72.4,29.91,NW,310,0.0,4.0,82,0.00,,,0.00,WeatherCatV1.10B1784,2013-07-18 08:25:00,
2013-07-18 04:30:00,78.4,72.4,29.91,NW,309,0.0,0.0,82,0.00,,,0.00,WeatherCatV1.10B1784,2013-07-18 08:30:00,
2013-07-18 04:35:00,78.6,72.6,29.91,West,274,0.0,0.0,82,0.00,,,0.00,WeatherCatV1.10B1784,2013-07-18 08:35:00,
2013-07-18 04:40:00,78.8,72.5,29.92,West,267,0.0,4.0,81,0.00,,,0.00,WeatherCatV1.10B1784,2013-07-18 08:40:00,
2013-07-18 04:45:00,79.1,72.8,29.91,WSW,237,0.0,4.0,81,0.00,,,0.00,WeatherCatV1.10B1784,2013-07-18 08:45:00,
2013-07-18 04:50:00,79.2,72.5,29.91,WSW,238,0.0,4.0,80,0.00,,,0.00,WeatherCatV1.10B1784,2013-07-18 08:50:00,
2013-07-18 04:55:00,79.2,72.5,29.92,WNW,301,0.0,2.0,80,0.00,,,0.00,WeatherCatV1.10B1784,2013-07-18 08:55:00,
2013-07-18 05:00:00,79.1,72.8,29.92,WSW,242,0.0,1.0,81,0.00,,,0.00,WeatherCatV1.10B1784,2013-07-18 09:00:00,
2013-07-18 05:05:00,78.9,72.6,29.92,WSW,241,0.0,3.0,81,0.00,,,0.00,WeatherCatV1.10B1784,2013-07-18 09:05:00,
2013-07-18 05:10:00,78.5,72.5,29.92,WSW,241,0.0,0.0,82,0.00,,,0.00,WeatherCatV1.10B1784,2013-07-18 09:10:00,
2013-07-18 05:15:00,78.3,72.3,29.92,WSW,245,0.0,3.0,82,0.00,,,0.00,WeatherCatV1.10B1784,2013-07-18 09:15:00,
2013-07-18 05:20:00,78.2,72.2,29.92,WSW,249,0.0,3.0,82,0.00,,,0.00,WeatherCatV1.10B1784,2013-07-18 09:20:00,
2013-07-18 05:25:00,78.2,72.6,29.93,WSW,257,0.0,0.0,83,0.00,,,0.00,WeatherCatV1.10B1784,2013-07-18 09:25:00,
2013-07-18 05:30:00,78.1,72.5,29.93,WSW,252,0.0,10.0,83,0.00,,,0.00,WeatherCatV1.10B1784,2013-07-18 09:30:00,
2013-07-18 05:35:00,78.0,72.4,29.93,WNW,296,1.0,4.0,83,0.00,,,0.00,WeatherCatV1.10B1784,2013-07-18 09:35:00,
2013-07-18 05:40:00,77.9,72.7,29.93,WNW,288,0.0,7.0,84,0.00,,,0.00,WeatherCatV1.10B1784,2013-07-18 09:40:00,
2013-07-18 05:45:00,77.9,72.7,29.93,WNW,289,0.0,1.0,84,0.00,,,0.00,WeatherCatV1.10B1784,2013-07-18 09:45:00,
2013-07-18 05:50:00,78.0,72.8,29.93,WNW,289,0.0,2.0,84,0.00,,,0.00,WeatherCatV1.10B1784,2013-07-18 09:50:00,
2013-07-18 05:55:00,78.0,72.8,29.93,WNW,287,0.0,4.0,84,0.00,,,0.00,WeatherCatV1.10B1784,2013-07-18 09:55:00,
2013-07-18 06:00:00,78.1,72.9,29.93,West,275,0.0,2.0,84,0.00,,,0.00,WeatherCatV1.10B1784,2013-07-18 10:00:00,
2013-07-18 06:05:00,78.0,72.8,29.93,West,279,4.0,4.0,84,0.00,,,0.00,WeatherCatV1.10B1784,2013-07-18 10:05:00,
2013-07-18 06:10:00,78.0,72.8,29.93,West,267,0.0,5.0,84,0.00,,,0.00,WeatherCatV1.10B1784,2013-07-18 10:10:00,
2013-07-18 06:15:00,77.9,72.7,29.93,West,278,0.0,5.0,84,0.00,,,0.00,WeatherCatV1.10B1784,2013-07-18 10:15:00,
2013-07-18 06:20:00,77.9,72.7,29.93,West,279,0.0,0.0,84,0.00,,,0.00,WeatherCatV1.10B1784,2013-07-18 10:20:00,
2013-07-18 06:25:00,77.9,72.7,29.93,West,279,0.0,2.0,84,0.00,,,0.00,WeatherCatV1.10B1784,2013-07-18 10:25:00,
2013-07-18 06:30:00,77.9,72.7,29.94,West,273,0.0,4.0,84,0.00,,,0.00,WeatherCatV1.10B1784,2013-07-18 10:30:00,
2013-07-18 06:35:00,77.9,73.0,29.94,West,277,0.0,1.0,85,0.00,,,0.00,WeatherCatV1.10B1784,2013-07-18 10:35:00,
2013-07-18 06:40:00,78.0,72.8,29.94,West,277,0.0,1.0,84,0.00,,,0.00,WeatherCatV1.10B1784,2013-07-18 10:40:00,
2013-07-18 06:45:00,78.1,72.9,29.94,WNW,284,0.0,5.0,84,0.00,,,0.00,WeatherCatV1.10B1784,2013-07-18 10:45:00,
2013-07-18 06:50:00,78.1,72.9,29.94,WNW,284,0.0,0.0,84,0.00,,,0.00,WeatherCatV1.10B1784,2013-07-18 10:50:00,
2013-07-18 06:55:00,78.2,73.0,29.95,WNW,284,0.0,1.0,84,0.00,,,0.00,WeatherCatV1.10B1784,2013-07-18 10:55:00,
2013-07-18 07:00:00,78.4,73.1,29.95,West,279,0.0,3.0,84,0.00,,,0.00,WeatherCatV1.10B1784,2013-07-18 11:00:00,
2013-07-18 07:05:00,78.6,73.3,29.95,West,279,0.0,2.0,84,0.00,,,0.00,WeatherCatV1.10B1784,2013-07-18 11:05:00,
2013-07-18 07:10:00,78.7,73.4,29.95,West,273,1.0,3.0,84,0.00,,,0.00,WeatherCatV1.10B1784,2013-07-18 11:10:00,
2013-07-18 07:15:00,79.1,73.5,29.95,SW,234,3.0,6.0,83,0.00,,,0.00,WeatherCatV1.10B1784,2013-07-18 11:15:00,
2013-07-18 07:20:00,79.3,73.7,29.95,NW,315,1.0,6.0,83,0.00,,,0.00,WeatherCatV1.10B1784,2013-07-18 11:20:00,
2013-07-18 07:25:00,79.5,73.9,29.95,NW,313,0.0,2.0,83,0.00,,,0.00,WeatherCatV1.10B1784,2013-07-18 11:25:00,
2013-07-18 07:30:00,79.7,73.7,29.95,West,267,1.0,7.0,82,0.00,,,0.00,WeatherCatV1.10B1784,2013-07-18 11:30:00,
2013-07-18 07:35:00,79.9,73.9,29.95,WNW,298,0.0,2.0,82,0.00,,,0.00,WeatherCatV1.10B1784,2013-07-18 11:35:00,
2013-07-18 07:40:00,80.1,73.7,29.95,West,262,2.0,6.0,81,0.00,,,0.00,WeatherCatV1.10B1784,2013-07-18 11:40:00,
2013-07-18 07:45:00,80.4,74.0,29.95,West,262,0.0,2.0,81,0.00,,,0.00,WeatherCatV1.10B1784,2013-07-18 11:45:00,
2013-07-18 07:50:00,80.6,74.6,29.95,WNW,297,1.0,3.0,82,0.00,,,0.00,WeatherCatV1.10B1784,2013-07-18 11:50:00,
2013-07-18 07:55:00,80.8,74.4,29.95,WSW,257,0.0,2.0,81,0.00,,,0.00,WeatherCatV1.10B1784,2013-07-18 11:55:00,
2013-07-18 08:00:00,80.9,74.5,29.95,West,279,1.0,6.0,81,0.00,,,0.00,WeatherCatV1.10B1784,2013-07-18 12:00:00,
2013-07-18 08:05:00,81.0,74.6,29.95,SW,226,2.0,2.0,81,0.00,,,0.00,WeatherCatV1.10B1784,2013-07-18 12:05:00,
2013-07-18 08:10:00,81.2,74.4,29.95,NNW,342,5.0,5.0,80,0.00,,,0.00,WeatherCatV1.10B1784,2013-07-18 12:10:00,
2013-07-18 08:15:00,81.4,74.6,29.95,WSW,245,0.0,7.0,80,0.00,,,0.00,WeatherCatV1.10B1784,2013-07-18 12:15:00,
2013-07-18 08:20:00,81.7,74.5,29.95,WNW,286,0.0,4.0,79,0.00,,,0.00,WeatherCatV1.10B1784,2013-07-18 12:20:00,
2013-07-18 08:25:00,82.0,74.8,29.95,WNW,288,0.0,1.0,79,0.00,,,0.00,WeatherCatV1.10B1784,2013-07-18 12:25:00,
2013-07-18 08:30:00,82.4,75.2,29.95,WNW,288,0.0,2.0,79,0.00,,,0.00,WeatherCatV1.10B1784,2013-07-18 12:30:00,
2013-07-18 08:35:00,82.7,75.1,29.95,WNW,288,1.0,4.0,78,0.00,,,0.00,WeatherCatV1.10B1784,2013-07-18 12:35:00,
2013-07-18 08:40:00,83.0,75.0,29.95,WNW,288,0.0,1.0,77,0.00,,,0.00,WeatherCatV1.10B1784,2013-07-18 12:40:00,
2013-07-18 08:45:00,83.6,75.6,29.95,WNW,288,0.0,1.0,77,0.00,,,0.00,WeatherCatV1.10B1784,2013-07-18 12:45:00,
2013-07-18 08:50:00,83.8,76.2,29.95,WNW,288,0.0,1.0,78,0.00,,,0.00,WeatherCatV1.10B1784,2013-07-18 12:50:00,
2013-07-18 08:55:00,84.0,75.6,29.95,NW,323,0.0,0.0,76,0.00,,,0.00,WeatherCatV1.10B1784,2013-07-18 12:55:00,
2013-07-18 09:00:00,84.5,75.3,29.95,NW,313,0.0,0.0,74,0.00,,,0.00,WeatherCatV1.10B1784,2013-07-18 13:00:00,
2013-07-18 09:05:00,84.8,76.0,29.96,West,271,2.0,3.0,75,0.00,,,0.00,WeatherCatV1.10B1784,2013-07-18 13:05:00,
2013-07-18 09:10:00,85.0,76.2,29.96,West,271,0.0,2.0,75,0.00,,,0.00,WeatherCatV1.10B1784,2013-07-18 13:10:00,
2013-07-18 09:15:00,85.1,75.4,29.96,West,273,0.0,0.0,73,0.00,,,0.00,WeatherCatV1.10B1784,2013-07-18 13:15:00,
2013-07-18 09:20:00,85.3,75.6,29.96,West,273,0.0,1.0,73,0.00,,,0.00,WeatherCatV1.10B1784,2013-07-18 13:20:00,
2013-07-18 09:25:00,85.6,75.9,29.96,West,273,0.0,0.0,73,0.00,,,0.00,WeatherCatV1.10B1784,2013-07-18 13:25:00,
2013-07-18 09:30:00,85.7,75.6,29.96,West,273,0.0,2.0,72,0.00,,,0.00,WeatherCatV1.10B1784,2013-07-18 13:30:00,
2013-07-18 09:35:00,85.9,74.1,29.96,NNW,331,0.0,3.0,68,0.00,,,0.00,WeatherCatV1.10B1784,2013-07-18 13:35:00,
2013-07-18 09:40:00,86.0,75.0,29.96,NNW,331,0.0,0.0,70,0.00,,,0.00,WeatherCatV1.10B1784,2013-07-18 13:40:00,
2013-07-18 09:45:00,86.6,74.7,29.96,NW,325,1.0,3.0,68,0.00,,,0.00,WeatherCatV1.10B1784,2013-07-18 13:45:00,
2013-07-18 09:50:00,86.9,74.6,29.96,NW,313,0.0,1.0,67,0.00,,,0.00,WeatherCatV1.10B1784,2013-07-18 13:50:00,
2013-07-18 09:55:00,86.8,74.0,29.96,NW,312,0.0,0.0,66,0.00,,,0.00,WeatherCatV1.10B1784,2013-07-18 13:55:00,
2013-07-18 10:00:00,87.0,74.2,29.96,NW,312,0.0,0.0,66,0.00,,,0.00,WeatherCatV1.10B1784,2013-07-18 14:00:00,
2013-07-18 10:05:00,87.3,75.0,29.96,NW,312,0.0,1.0,67,0.00,,,0.00,WeatherCatV1.10B1784,2013-07-18 14:05:00,
2013-07-18 10:10:00,87.1,72.9,29.96,WNW,298,4.0,4.0,63,0.00,,,0.00,WeatherCatV1.10B1784,2013-07-18 14:10:00,
2013-07-18 10:15:00,87.3,74.5,29.96,WNW,298,0.0,1.0,66,0.00,,,0.00,WeatherCatV1.10B1784,2013-07-18 14:15:00,
2013-07-18 10:20:00,87.4,73.7,29.96,WNW,298,0.0,2.0,64,0.00,,,0.00,WeatherCatV1.10B1784,2013-07-18 14:20:00,
2013-07-18 10:25:00,87.3,72.7,29.96,NNW,329,0.0,1.0,62,0.00,,,0.00,WeatherCatV1.10B1784,2013-07-18 14:25:00,
2013-07-18 10:30:00,87.5,72.8,29.96,NNW,333,0.0,2.0,62,0.00,,,0.00,WeatherCatV1.10B1784,2013-07-18 14:30:00,
2013-07-18 10:35:00,87.9,72.7,29.96,NNW,333,0.0,0.0,61,0.00,,,0.00,WeatherCatV1.10B1784,2013-07-18 14:35:00,
2013-07-18 10:40:00,88.3,73.6,29.96,WNW,283,0.0,2.0,62,0.00,,,0.00,WeatherCatV1.10B1784,2013-07-18 14:40:00,
2013-07-18 10:45:00,88.4,72.2,29.96,WNW,290,2.0,2.0,59,0.00,,,0.00,WeatherCatV1.10B1784,2013-07-18 14:45:00,
2013-07-18 10:50:00,88.5,72.3,29.95,WNW,289,1.0,1.0,59,0.00,,,0.00,WeatherCatV1.10B1784,2013-07-18 14:50:00,
2013-07-18 10:55:00,88.4,74.2,29.96,WSW,257,0.0,1.0,63,0.00,,,0.00,WeatherCatV1.10B1784,2013-07-18 14:55:00,
2013-07-18 11:00:00,88.6,71.4,29.96,NNW,336,0.0,5.0,57,0.00,,,0.00,WeatherCatV1.10B1784,2013-07-18 15:00:00,
2013-07-18 11:05:00,88.5,71.8,29.96,NW,307,1.0,2.0,58,0.00,,,0.00,WeatherCatV1.10B1784,2013-07-18 15:05:00,
2013-07-18 11:10:00,88.7,74.0,29.96,NW,306,0.0,0.0,62,0.00,,,0.00,WeatherCatV1.10B1784,2013-07-18 15:10:00,
2013-07-18 11:15:00,89.2,71.9,29.96,WNW,299,0.0,3.0,57,0.00,,,0.00,WeatherCatV1.10B1784,2013-07-18 15:15:00,
2013-07-18 11:20:00,89.6,73.8,29.96,WNW,299,0.0,1.0,60,0.00,,,0.00,WeatherCatV1.10B1784,2013-07-18 15:20:00,
2013-07-18 11:25:00,90.0,71.6,29.96,WNW,299,0.0,0.0,55,0.00,,,0.00,WeatherCatV1.10B1784,2013-07-18 15:25:00,
2013-07-18 11:30:00,90.0,71.1,29.96,WNW,299,0.0,1.0,54,0.00,,,0.00,WeatherCatV1.10B1784,2013-07-18 15:30:00,
2013-07-18 11:35:00,89.6,70.2,29.96,WNW,294,0.0,4.0,53,0.00,,,0.00,WeatherCatV1.10B1784,2013-07-18 15:35:00,
2013-07-18 11:40:00,89.3,72.5,29.95,West,267,1.0,2.0,58,0.00,,,0.00,WeatherCatV1.10B1784,2013-07-18 15:40:00,
2013-07-18 11:45:00,89.4,71.6,29.95,West,262,1.0,3.0,56,0.00,,,0.00,WeatherCatV1.10B1784,2013-07-18 15:45:00,
2013-07-18 11:50:00,89.4,70.5,29.95,SW,232,1.0,3.0,54,0.00,,,0.00,WeatherCatV1.10B1784,2013-07-18 15:50:00,
2013-07-18 11:55:00,89.7,70.8,29.95,West,267,0.0,4.0,54,0.00,,,0.00,WeatherCatV1.10B1784,2013-07-18 15:55:00,
2013-07-18 12:00:00,89.5,70.1,29.95,WSW,237,1.0,6.0,53,0.00,,,0.00,WeatherCatV1.10B1784,2013-07-18 16:00:00,
2013-07-18 12:05:00,89.2,69.2,29.95,WSW,238,0.0,0.0,52,0.00,,,0.00,WeatherCatV1.10B1784,2013-07-18 16:05:00,
2013-07-18 12:10:00,89.7,70.8,29.95,WSW,238,0.0,1.0,54,0.00,,,0.00,WeatherCatV1.10B1784,2013-07-18 16:10:00,
2013-07-18 12:15:00,90.3,73.0,29.95,WSW,238,0.0,1.0,57,0.00,,,0.00,WeatherCatV1.10B1784,2013-07-18 16:15:00,
2013-07-18 12:20:00,90.4,69.2,29.95,WSW,238,0.0,0.0,50,0.00,,,0.00,WeatherCatV1.10B1784,2013-07-18 16:20:00,
2013-07-18 12:25:00,90.3,70.2,29.95,WSW,238,0.0,0.0,52,0.00,,,0.00,WeatherCatV1.10B1784,2013-07-18 16:25:00,
2013-07-18 12:30:00,91.2,72.7,29.95,WSW,238,0.0,0.0,55,0.00,,,0.00,WeatherCatV1.10B1784,2013-07-18 16:30:00,
2013-07-18 12:35:00,91.4,70.1,29.94,WSW,238,0.0,1.0,50,0.00,,,0.00,WeatherCatV1.10B1784,2013-07-18 16:35:00,
2013-07-18 12:40:00,91.2,70.5,29.94,WSW,238,0.0,0.0,51,0.00,,,0.00,WeatherCatV1.10B1784,2013-07-18 16:40:00,
2013-07-18 12:45:00,91.8,71.6,29.94,WSW,238,0.0,0.0,52,0.00,,,0.00,WeatherCatV1.10B1784,2013-07-18 16:45:00,
2013-07-18 12:50:00,92.1,70.7,29.94,WSW,238,2.0,4.0,50,0.00,,,0.00,WeatherCatV1.10B1784,2013-07-18 16:50:00,
2013-07-18 12:55:00,91.8,71.0,29.94,WSW,238,0.0,1.0,51,0.00,,,0.00,WeatherCatV1.10B1784,2013-07-18 16:55:00,
2013-07-18 13:00:00,92.1,70.7,29.94,WSW,238,0.0,0.0,50,0.00,,,0.00,WeatherCatV1.10B1784,2013-07-18 17:00:00,
2013-07-18 13:05:00,92.3,72.1,29.94,WSW,238,0.0,1.0,52,0.00,,,0.00,WeatherCatV1.10B1784,2013-07-18 17:05:00,
2013-07-18 13:10:00,93.1,71.7,29.94,WSW,238,0.0,1.0,50,0.00,,,0.00,WeatherCatV1.10B1784,2013-07-18 17:10:00,
2013-07-18 13:15:00,92.9,72.6,29.94,WSW,238,0.0,0.0,52,0.00,,,0.00,WeatherCatV1.10B1784,2013-07-18 17:15:00,
2013-07-18 13:20:00,92.2,70.2,29.94,WSW,238,0.0,2.0,49,0.00,,,0.00,WeatherCatV1.10B1784,2013-07-18 17:20:00,
2013-07-18 13:25:00,92.2,70.2,29.94,WSW,238,2.0,3.0,49,0.00,,,0.00,WeatherCatV1.10B1784,2013-07-18 17:25:00,
2013-07-18 13:30:00,91.9,75.0,29.94,WSW,238,0.0,0.0,58,0.00,,,0.00,WeatherCatV1.10B1784,2013-07-18 17:30:00,
2013-07-18 13:35:00,92.3,71.5,29.94,WSW,238,0.0,0.0,51,0.00,,,0.00,WeatherCatV1.10B1784,2013-07-18 17:35:00,
2013-07-18 13:40:00,93.2,72.3,29.93,WSW,238,0.0,1.0,51,0.00,,,0.00,WeatherCatV1.10B1784,2013-07-18 17:40:00,
2013-07-18 13:45:00,94.2,72.7,29.93,WSW,238,0.0,0.0,50,0.00,,,0.00,WeatherCatV1.10B1784,2013-07-18 17:45:00,
2013-07-18 13:50:00,94.4,71.6,29.93,WSW,238,0.0,1.0,48,0.00,,,0.00,WeatherCatV1.10B1784,2013-07-18 17:50:00,
2013-07-18 13:55:00,95.0,72.2,29.93,WSW,238,0.0,0.0,48,0.00,,,0.00,WeatherCatV1.10B1784,2013-07-18 17:55:00,
2013-07-18 14:00:00,95.2,71.7,29.93,WSW,238,0.0,0.0,47,0.00,,,0.00,WeatherCatV1.10B1784,2013-07-18 18:00:00,
2013-07-18 14:05:00,95.6,72.7,29.93,WSW,238,0.0,1.0,48,0.00,,,0.00,WeatherCatV1.10B1784,2013-07-18 18:05:00,
2013-07-18 14:10:00,94.5,74.1,29.93,SW,231,0.0,0.0,52,0.00,,,0.00,WeatherCatV1.10B1784,2013-07-18 18:10:00,
2013-07-18 14:15:00,93.8,71.7,29.93,SW,231,0.0,0.0,49,0.00,,,0.00,WeatherCatV1.10B1784,2013-07-18 18:15:00,
2013-07-18 14:20:00,93.4,73.1,29.93,WSW,246,0.0,3.0,52,0.00,,,0.00,WeatherCatV1.10B1784,2013-07-18 18:20:00,
2013-07-18 14:25:00,93.4,71.3,29.92,WSW,246,0.0,1.0,49,0.00,,,0.00,WeatherCatV1.10B1784,2013-07-18 18:25:00,
2013-07-18 14:30:00,92.7,73.0,29.92,WSW,246,0.0,1.0,53,0.00,,,0.00,WeatherCatV1.10B1784,2013-07-18 18:30:00,
2013-07-18 14:35:00,92.5,73.9,29.92,WSW,246,0.0,1.0,55,0.00,,,0.00,WeatherCatV1.10B1784,2013-07-18 18:35:00,
2013-07-18 14:40:00,93.6,72.7,29.92,SW,235,0.0,3.0,51,0.00,,,0.00,WeatherCatV1.10B1784,2013-07-18 18:40:00,
2013-07-18 14:45:00,95.1,74.1,29.92,SE,129,0.0,6.0,51,0.00,,,0.00,WeatherCatV1.10B1784,2013-07-18 18:45:00,
2013-07-18 14:50:00,95.1,72.9,29.91,SE,138,3.0,3.0,49,0.00,,,0.00,WeatherCatV1.10B1784,2013-07-18 18:50:00,
2013-07-18 14:55:00,94.4,74.0,29.92,SE,140,0.0,0.0,52,0.00,,,0.00,WeatherCatV1.10B1784,2013-07-18 18:55:00,
2013-07-18 15:00:00,93.8,74.0,29.91,SE,140,0.0,1.0,53,0.00,,,0.00,WeatherCatV1.10B1784,2013-07-18 19:00:00,
2013-07-18 15:05:00,92.9,73.2,29.91,SSE,158,0.0,1.0,53,0.00,,,0.00,WeatherCatV1.10B1784,2013-07-18 19:05:00,
2013-07-18 15:11:00,92.6,74.0,29.91,SSE,158,0.0,0.0,55,0.00,,,0.00,WeatherCatV1.10B1784,2013-07-18 19:11:00,
2013-07-18 15:16:00,92.0,73.5,29.91,WSW,245,0.0,4.0,55,0.00,,,0.00,WeatherCatV1.10B1784,2013-07-18 19:16:00,
2013-07-18 15:21:00,92.2,74.2,29.91,WSW,244,0.0,1.0,56,0.00,,,0.00,WeatherCatV1.10B1784,2013-07-18 19:21:00,
2013-07-18 15:26:00,92.1,74.1,29.90,SW,233,2.0,2.0,56,0.00,,,0.00,WeatherCatV1.10B1784,2013-07-18 19:26:00,
2013-07-18 15:31:00,92.8,73.7,29.90,WSW,249,3.0,4.0,54,0.00,,,0.00,WeatherCatV1.10B1784,2013-07-18 19:31:00,
2013-07-18 15:36:00,92.5,74.5,29.90,WSW,246,0.0,3.0,56,0.00,,,0.00,WeatherCatV1.10B1784,2013-07-18 19:36:00,
2013-07-18 15:41:00,93.3,75.2,29.90,SSE,162,0.0,1.0,56,0.00,,,0.00,WeatherCatV1.10B1784,2013-07-18 19:41:00,
2013-07-18 15:46:00,92.5,74.5,29.90,WSW,249,0.0,4.0,56,0.00,,,0.00,WeatherCatV1.10B1784,2013-07-18 19:46:00,
2013-07-18 15:51:00,92.4,74.9,29.90,WSW,249,0.0,0.0,57,0.00,,,0.00,WeatherCatV1.10B1784,2013-07-18 19:51:00,
2013-07-18 15:56:00,93.0,75.5,29.90,SSE,151,0.0,1.0,57,0.00,,,0.00,WeatherCatV1.10B1784,2013-07-18 19:56:00,
2013-07-18 16:01:00,92.8,73.7,29.89,SSE,151,0.0,1.0,54,0.00,,,0.00,WeatherCatV1.10B1784,2013-07-18 20:01:00,
2013-07-18 16:06:00,91.6,73.1,29.89,SSE,151,0.0,0.0,55,0.00,,,0.00,WeatherCatV1.10B1784,2013-07-18 20:06:00,
2013-07-18 16:11:00,91.9,76.0,29.89,SSE,151,1.0,1.0,60,0.00,,,0.00,WeatherCatV1.10B1784,2013-07-18 20:11:00,
2013-07-18 16:16:00,92.5,75.5,29.89,SW,222,0.0,10.0,58,0.00,,,0.00,WeatherCatV1.10B1784,2013-07-18 20:16:00,
2013-07-18 16:21:00,91.9,73.9,29.89,WSW,249,0.0,8.0,56,0.00,,,0.00,WeatherCatV1.10B1784,2013-07-18 20:21:00,
2013-07-18 16:26:00,92.0,74.5,29.89,SW,233,0.0,2.0,57,0.00,,,0.00,WeatherCatV1.10B1784,2013-07-18 20:26:00,
2013-07-18 16:31:00,92.7,74.1,29.89,SW,235,3.0,5.0,55,0.00,,,0.00,WeatherCatV1.10B1784,2013-07-18 20:31:00,
2013-07-18 16:36:00,92.8,74.8,29.89,SW,234,0.0,1.0,56,0.00,,,0.00,WeatherCatV1.10B1784,2013-07-18 20:36:00,
2013-07-18 16:41:00,92.6,73.5,29.89,WSW,237,4.0,6.0,54,0.00,,,0.00,WeatherCatV1.10B1784,2013-07-18 20:41:00,
2013-07-18 16:46:00,92.2,73.7,29.89,SW,233,1.0,5.0,55,0.00,,,0.00,WeatherCatV1.10B1784,2013-07-18 20:46:00,
2013-07-18 16:51:00,92.2,74.7,29.90,SW,228,0.0,0.0,57,0.00,,,0.00,WeatherCatV1.10B1784,2013-07-18 20:51:00,
2013-07-18 16:56:00,92.2,73.7,29.89,WSW,243,3.0,6.0,55,0.00,,,0.00,WeatherCatV1.10B1784,2013-07-18 20:56:00,
2013-07-18 17:01:00,92.2,75.8,29.89,SW,224,4.0,4.0,59,0.00,,,0.00,WeatherCatV1.10B1784,2013-07-18 21:01:00,
2013-07-18 17:06:00,92.1,73.6,29.89,SW,228,1.0,2.0,55,0.00,,,0.00,WeatherCatV1.10B1784,2013-07-18 21:06:00,
2013-07-18 17:11:00,91.9,73.9,29.89,SW,228,0.0,4.0,56,0.00,,,0.00,WeatherCatV1.10B1784,2013-07-18 21:11:00,
2013-07-18 17:16:00,92.4,74.9,29.89,SW,225,0.0,3.0,57,0.00,,,0.00,WeatherCatV1.10B1784,2013-07-18 21:16:00,
2013-07-18 17:21:00,92.0,74.5,29.89,SW,232,0.0,3.0,57,0.00,,,0.00,WeatherCatV1.10B1784,2013-07-18 21:21:00,
2013-07-18 17:26:00,92.3,74.3,29.89,SW,232,1.0,4.0,56,0.00,,,0.00,WeatherCatV1.10B1784,2013-07-18 21:26:00,
2013-07-18 17:31:00,92.3,75.9,29.89,SW,233,0.0,0.0,59,0.00,,,0.00,WeatherCatV1.10B1784,2013-07-18 21:31:00,
2013-07-18 17:36:00,92.6,74.0,29.89,SW,231,5.0,6.0,55,0.00,,,0.00,WeatherCatV1.10B1784,2013-07-18 21:36:00,
2013-07-18 17:41:00,91.5,75.6,29.88,SW,234,0.0,0.0,60,0.00,,,0.00,WeatherCatV1.10B1784,2013-07-18 21:41:00,
2013-07-18 17:46:00,92.1,75.2,29.88,SW,234,2.0,2.0,58,0.00,,,0.00,WeatherCatV1.10B1784,2013-07-18 21:46:00,
2013-07-18 17:51:00,92.3,76.4,29.88,SW,234,0.0,0.0,60,0.00,,,0.00,WeatherCatV1.10B1784,2013-07-18 21:51:00,
2013-07-18 17:56:00,92.8,75.8,29.88,SW,234,0.0,1.0,58,0.00,,,0.00,WeatherCatV1.10B1784,2013-07-18 21:56:00,
2013-07-18 18:01:00,92.7,75.2,29.87,SW,234,0.0,0.0,57,0.00,,,0.00,WeatherCatV1.10B1784,2013-07-18 22:01:00,
2013-07-18 18:06:00,92.8,76.3,29.88,SW,234,0.0,0.0,59,0.00,,,0.00,WeatherCatV1.10B1784,2013-07-18 22:06:00,
2013-07-18 18:11:00,93.4,76.9,29.88,SW,234,0.0,0.0,59,0.00,,,0.00,WeatherCatV1.10B1784,2013-07-18 22:11:00,
2013-07-18 18:16:00,93.6,77.1,29.88,SW,234,0.0,0.0,59,0.00,,,0.00,WeatherCatV1.10B1784,2013-07-18 22:16:00,
2013-07-18 18:21:00,93.6,76.6,29.88,SW,234,0.0,0.0,58,0.00,,,0.00,WeatherCatV1.10B1784,2013-07-18 22:21:00,
2013-07-18 18:26:00,92.9,76.9,29.88,SW,234,0.0,0.0,60,0.00,,,0.00,WeatherCatV1.10B1784,2013-07-18 22:26:00,
2013-07-18 18:31:00,91.9,75.5,29.88,SW,234,0.0,0.0,59,0.00,,,0.00,WeatherCatV1.10B1784,2013-07-18 22:31:00,
2013-07-18 18:36:00,91.1,76.2,29.89,SW,234,0.0,1.0,62,0.00,,,0.00,WeatherCatV1.10B1784,2013-07-18 22:36:00,
2013-07-18 18:41:00,90.6,76.2,29.89,SW,234,0.0,0.0,63,0.00,,,0.00,WeatherCatV1.10B1784,2013-07-18 22:41:00,
2013-07-18 18:46:00,90.2,76.8,29.89,SW,234,0.0,0.0,65,0.00,,,0.00,WeatherCatV1.10B1784,2013-07-18 22:46:00,
2013-07-18 18:51:00,89.9,77.0,29.89,SW,234,0.0,0.0,66,0.00,,,0.00,WeatherCatV1.10B1784,2013-07-18 22:51:00,
2013-07-18 18:56:00,89.4,77.4,29.89,SW,234,0.0,0.0,68,0.00,,,0.00,WeatherCatV1.10B1784,2013-07-18 22:56:00,
2013-07-18 19:01:00,88.8,76.4,29.89,SW,234,0.0,0.0,67,0.00,,,0.00,WeatherCatV1.10B1784,2013-07-18 23:01:00,
2013-07-18 19:06:00,88.4,76.9,29.89,SW,234,0.0,0.0,69,0.00,,,0.00,WeatherCatV1.10B1784,2013-07-18 23:06:00,
2013-07-18 19:11:00,87.8,76.8,29.90,SW,234,0.0,0.0,70,0.00,,,0.00,WeatherCatV1.10B1784,2013-07-18 23:11:00,
2013-07-18 19:16:00,87.5,76.5,29.90,SW,234,0.0,0.0,70,0.00,,,0.00,WeatherCatV1.10B1784,2013-07-18 23:16:00,
2013-07-18 19:21:00,87.3,77.1,29.90,SW,234,0.0,0.0,72,0.00,,,0.00,WeatherCatV1.10B1784,2013-07-18 23:21:00,
2013-07-18 19:26:00,86.8,77.5,29.90,SW,234,0.0,0.0,74,0.00,,,0.00,WeatherCatV1.10B1784,2013-07-18 23:26:00,
2013-07-18 19:31:00,86.2,77.3,29.90,SW,234,0.0,0.0,75,0.00,,,0.00,WeatherCatV1.10B1784,2013-07-18 23:31:00,
2013-07-18 19:36:00,85.8,77.7,29.90,SW,234,0.0,0.0,77,0.00,,,0.00,WeatherCatV1.10B1784,2013-07-18 23:36:00,
2013-07-18 19:41:00,85.4,77.7,29.90,SW,234,0.0,0.0,78,0.00,,,0.00,WeatherCatV1.10B1784,2013-07-18 23:41:00,
2013-07-18 19:46:00,84.9,77.2,29.90,SW,234,0.0,0.0,78,0.00,,,0.00,WeatherCatV1.10B1784,2013-07-18 23:46:00,
2013-07-18 19:51:00,84.4,77.2,29.90,SW,234,0.0,0.0,79,0.00,,,0.00,WeatherCatV1.10B1784,2013-07-18 23:51:00,
2013-07-18 19:56:00,83.8,76.9,29.90,SW,234,0.0,0.0,80,0.00,,,0.00,WeatherCatV1.10B1784,2013-07-18 23:56:00,
2013-07-18 20:01:00,83.3,76.5,29.89,SW,234,0.0,0.0,80,0.00,,,0.00,WeatherCatV1.10B1784,2013-07-19 00:01:00,
2013-07-18 20:06:00,82.9,76.8,29.89,SW,234,0.0,0.0,82,0.00,,,0.00,WeatherCatV1.10B1784,2013-07-19 00:06:00,
2013-07-18 20:11:00,82.6,76.5,29.89,SW,234,0.0,0.0,82,0.00,,,0.00,WeatherCatV1.10B1784,2013-07-19 00:11:00,
2013-07-18 20:16:00,82.3,76.6,29.89,SW,234,0.0,0.0,83,0.00,,,0.00,WeatherCatV1.10B1784,2013-07-19 00:16:00,
2013-07-18 20:21:00,81.9,75.8,29.89,SW,234,0.0,0.0,82,0.00,,,0.00,WeatherCatV1.10B1784,2013-07-19 00:21:00,
2013-07-18 20:26:00,81.6,75.9,29.89,SW,234,0.0,0.0,83,0.00,,,0.00,WeatherCatV1.10B1784,2013-07-19 00:26:00,
2013-07-18 20:31:00,81.3,75.6,29.90,SW,234,0.0,0.0,83,0.00,,,0.00,WeatherCatV1.10B1784,2013-07-19 00:31:00,
2013-07-18 20:36:00,80.9,75.6,29.90,SW,234,0.0,0.0,84,0.00,,,0.00,WeatherCatV1.10B1784,2013-07-19 00:36:00,
2013-07-18 20:41:00,80.6,75.7,29.90,SW,234,0.0,0.0,85,0.00,,,0.00,WeatherCatV1.10B1784,2013-07-19 00:41:00,
2013-07-18 20:46:00,80.4,75.1,29.90,SW,234,0.0,0.0,84,0.00,,,0.00,WeatherCatV1.10B1784,2013-07-19 00:46:00,
2013-07-18 20:51:00,80.2,75.3,29.90,SW,234,0.0,0.0,85,0.00,,,0.00,WeatherCatV1.10B1784,2013-07-19 00:51:00,
2013-07-18 20:56:00,80.1,75.2,29.90,SW,234,0.0,0.0,85,0.00,,,0.00,WeatherCatV1.10B1784,2013-07-19 00:56:00,
2013-07-18 21:01:00,79.9,75.0,29.90,SW,234,0.0,0.0,85,0.00,,,0.00,WeatherCatV1.10B1784,2013-07-19 01:01:00,
2013-07-18 21:06:00,79.7,74.4,29.90,SW,234,0.0,0.0,84,0.00,,,0.00,WeatherCatV1.10B1784,2013-07-19 01:06:00,
2013-07-18 21:11:00,79.5,74.2,29.91,SW,234,0.0,0.0,84,0.00,,,0.00,WeatherCatV1.10B1784,2013-07-19 01:11:00,
2013-07-18 21:16:00,79.3,73.7,29.91,SW,234,0.0,0.0,83,0.00,,,0.00,WeatherCatV1.10B1784,2013-07-19 01:16:00,
2013-07-18 21:21:00,79.1,73.5,29.91,SW,234,0.0,0.0,83,0.00,,,0.00,WeatherCatV1.10B1784,2013-07-19 01:21:00,
2013-07-18 21:26:00,78.9,73.3,29.91,SW,234,0.0,0.0,83,0.00,,,0.00,WeatherCatV1.10B1784,2013-07-19 01:26:00,
2013-07-18 21:31:00,78.7,72.7,29.91,SW,234,0.0,0.0,82,0.00,,,0.00,WeatherCatV1.10B1784,2013-07-19 01:31:00,
2013-07-18 21:36:00,78.5,72.2,29.91,SW,234,0.0,0.0,81,0.00,,,0.00,WeatherCatV1.10B1784,2013-07-19 01:36:00,
2013-07-18 21:41:00,78.3,72.3,29.91,SW,234,0.0,0.0,82,0.00,,,0.00,WeatherCatV1.10B1784,2013-07-19 01:41:00,
2013-07-18 21:46:00,78.2,72.2,29.91,SW,234,0.0,0.0,82,0.00,,,0.00,WeatherCatV1.10B1784,2013-07-19 01:46:00,
2013-07-18 21:51:00,78.0,72.0,29.91,SW,234,0.0,0.0,82,0.00,,,0.00,WeatherCatV1.10B1784,2013-07-19 01:51:00,
2013-07-18 21:56:00,78.0,72.0,29.91,SW,234,0.0,0.0,82,0.00,,,0.00,WeatherCatV1.10B1784,2013-07-19 01:56:00,
2013-07-18 22:01:00,77.9,72.3,29.91,SW,234,0.0,0.0,83,0.00,,,0.00,WeatherCatV1.10B1784,2013-07-19 02:01:00,
2013-07-18 22:06:00,77.8,72.2,29.92,SW,234,0.0,0.0,83,0.00,,,0.00,WeatherCatV1.10B1784,2013-07-19 02:06:00,
2013-07-18 22:11:00,77.6,72.4,29.92,SW,234,0.0,0.0,84,0.00,,,0.00,WeatherCatV1.10B1784,2013-07-19 02:11:00,
2013-07-18 22:16:00,77.3,72.1,29.91,SW,234,0.0,0.0,84,0.00,,,0.00,WeatherCatV1.10B1784,2013-07-19 02:16:00,
2013-07-18 22:21:00,77.0,71.8,29.91,SW,234,0.0,0.0,84,0.00,,,0.00,WeatherCatV1.10B1784,2013-07-19 02:21:00,
2013-07-18 22:26:00,76.7,71.8,29.92,SW,234,0.0,0.0,85,0.00,,,0.00,WeatherCatV1.10B1784,2013-07-19 02:26:00,
2013-07-18 22:31:00,76.4,71.5,29.92,SW,234,0.0,0.0,85,0.00,,,0.00,WeatherCatV1.10B1784,2013-07-19 02:31:00,
2013-07-18 22:36:00,76.2,71.7,29.93,SW,234,0.0,0.0,86,0.00,,,0.00,WeatherCatV1.10B1784,2013-07-19 02:36:00,
2013-07-18 22:41:00,75.9,71.7,29.93,SW,234,0.0,0.0,87,0.00,,,0.00,WeatherCatV1.10B1784,2013-07-19 02:41:00,
2013-07-18 22:46:00,75.6,71.8,29.92,SW,234,0.0,0.0,88,0.00,,,0.00,WeatherCatV1.10B1784,2013-07-19 02:46:00,
2013-07-18 22:51:00,75.5,71.7,29.92,SW,234,0.0,0.0,88,0.00,,,0.00,WeatherCatV1.10B1784,2013-07-19 02:51:00,
2013-07-18 22:56:00,75.4,71.6,29.92,SW,234,0.0,0.0,88,0.00,,,0.00,WeatherCatV1.10B1784,2013-07-19 02:56:00,
2013-07-18 23:01:00,75.3,71.2,29.92,SW,234,0.0,0.0,87,0.00,,,0.00,WeatherCatV1.10B1784,2013-07-19 03:01:00,
2013-07-18 23:06:00,75.3,71.2,29.92,SW,234,0.0,0.0,87,0.00,,,0.00,WeatherCatV1.10B1784,2013-07-19 03:06:00,
2013-07-18 23:11:00,75.2,71.1,29.92,SW,234,0.0,0.0,87,0.00,,,0.00,WeatherCatV1.10B1784,2013-07-19 03:11:00,
2013-07-18 23:16:00,75.1,71.0,29.92,SW,234,0.0,0.0,87,0.00,,,0.00,WeatherCatV1.10B1784,2013-07-19 03:16:00,
2013-07-18 23:21:00,75.1,71.0,29.91,SW,234,0.0,0.0,87,0.00,,,0.00,WeatherCatV1.10B1784,2013-07-19 03:21:00,
2013-07-18 23:26:00,75.0,70.9,29.91,SW,234,0.0,0.0,87,0.00,,,0.00,WeatherCatV1.10B1784,2013-07-19 03:26:00,
2013-07-18 23:31:00,74.8,70.7,29.91,SW,234,0.0,0.0,87,0.00,,,0.00,WeatherCatV1.10B1784,2013-07-19 03:31:00,
2013-07-18 23:36:00,74.7,70.6,29.91,SW,234,0.0,0.0,87,0.00,,,0.00,WeatherCatV1.10B1784,2013-07-19 03:36:00,
2013-07-18 23:41:00,74.6,70.5,29.91,SW,234,0.0,0.0,87,0.00,,,0.00,WeatherCatV1.10B1784,2013-07-19 03:41:00,
2013-07-18 23:46:00,74.5,70.4,29.91,SW,234,0.0,0.0,87,0.00,,,0.00,WeatherCatV1.10B1784,2013-07-19 03:46:00,
2013-07-18 23:51:00,74.4,70.3,29.90,SW,234,0.0,0.0,87,0.00,,,0.00,WeatherCatV1.10B1784,2013-07-19 03:51:00,
2013-07-18 23:56:00,74.2,70.4,29.90,SW,234,0.0,0.0,88,0.00,,,0.00,WeatherCatV1.10B1784,2013-07-19 03:56:00,